GRBBETA

Last updated on Sun Jun 21 2026 00:03:50 GMT+0000 (Coordinated Universal Time)

1 60237U 24128C 26171.40570095 .00002226 00000+0 16133-3 0 9990 2 60237 61.9881 204.9739 0040241 135.3081 225.1267 15.06654606106752
UTC large
Height (km)
Speed (km/s)
/
Latitude / Longitude
Inclination (degrees)
Orbital Period (minutes)
Azimuth
Elevation
Range (km)
Doppler Factor

Next 0 passes for location: London (51.5072 / 0.1276)

No passes found over London.
GRBBETA